DAH1138 DAAE-LFLL

Flight info

Callsign DAH1138
Flight time 1h 24m
Altitude 36000
Route BJA UN736 DOLIS DCT LUNOR DCT KIFMI DCT OLNUL DCT PADKO DCT MRM DCT MTL
Aircraft B738/M-SDE2E3FGHIRWXY/LB1

Departure

Time 2026-05-05 13:19
Airport Soummam–Abane Ramdane Airport (DAAE)

Arrival

Time 2026-05-05 14:43
Airport Lyon Saint-Exupéry Airport (LFLL)
Time Latitude Longitude Altitude Speed Heading
2026-05-05 12:50 36.71434 5.07249 9 ft 0 kts 217°
2026-05-05 13:14 36.71427 5.07242 9 ft 5 kts 217°
2026-05-05 13:14 36.71390 5.07187 8 ft 10 kts 249°
2026-05-05 13:14 36.71379 5.07106 9 ft 10 kts 259°
2026-05-05 13:14 36.71369 5.07024 8 ft 9 kts 261°
2026-05-05 13:15 36.71352 5.06950 8 ft 9 kts 230°
2026-05-05 13:15 36.71296 5.06935 7 ft 7 kts 172°
2026-05-05 13:15 36.71294 5.06935 7 ft 0 kts 172°
2026-05-05 13:15 36.71286 5.06937 7 ft 3 kts 172°
2026-05-05 13:16 36.71230 5.06946 6 ft 13 kts 179°
2026-05-05 13:16 36.71181 5.06850 6 ft 17 kts 257°
2026-05-05 13:16 36.71162 5.06674 8 ft 24 kts 261°
2026-05-05 13:16 36.71134 5.06447 11 ft 29 kts 262°
2026-05-05 13:17 36.71105 5.06174 9 ft 33 kts 262°
2026-05-05 13:17 36.71070 5.05901 10 ft 32 kts 261°
2026-05-05 13:17 36.71091 5.05709 8 ft 14 kts 270°
2026-05-05 13:17 36.71065 5.05664 8 ft 1 kts 189°
2026-05-05 13:18 36.71058 5.05672 8 ft 2 kts 131°
2026-05-05 13:18 36.71052 5.05728 8 ft 8 kts 85°
2026-05-05 13:18 36.71054 5.05746 8 ft 1 kts 81°
2026-05-05 13:18 36.71080 5.05968 10 ft 59 kts 82°
2026-05-05 13:19 36.71175 5.06795 6 ft 129 kts 82°
2026-05-05 13:19 36.71329 5.08069 214 ft 165 kts 83°
2026-05-05 13:19 36.71508 5.09494 951 ft 167 kts 82°
2026-05-05 13:19 36.71819 5.10877 1745 ft 167 kts 62°
2026-05-05 13:20 36.72556 5.12012 2465 ft 170 kts 38°
2026-05-05 13:20 36.73582 5.12798 3128 ft 177 kts 26°
2026-05-05 13:20 36.74751 5.13411 3679 ft 189 kts 15°
2026-05-05 13:20 36.76070 5.13616 4347 ft 192 kts 355°
2026-05-05 13:21 36.77362 5.13395 5134 ft 190 kts 346°
2026-05-05 13:21 36.78744 5.13144 5575 ft 211 kts 351°
2026-05-05 13:21 36.80234 5.12948 6050 ft 220 kts 354°
2026-05-05 13:21 36.81774 5.12936 6635 ft 222 kts 359°
2026-05-05 13:22 36.83348 5.12944 7104 ft 232 kts 354°
2026-05-05 13:22 36.84994 5.12807 7555 ft 246 kts 351°
2026-05-05 13:22 36.86795 5.12712 7788 ft 273 kts 358°
2026-05-05 13:22 36.88771 5.12796 8161 ft 292 kts
2026-05-05 13:23 36.90820 5.12957 8817 ft 299 kts
2026-05-05 13:23 36.92903 5.13153 9570 ft 302 kts
2026-05-05 13:23 36.94994 5.13366 10259 ft 308 kts
2026-05-05 13:23 36.97203 5.13599 10478 ft 331 kts
2026-05-05 13:24 36.99571 5.13853 10697 ft 351 kts
2026-05-05 13:24 37.02041 5.14127 11181 ft 362 kts
2026-05-05 13:24 37.04563 5.14413 11830 ft 366 kts
2026-05-05 13:24 37.07125 5.14708 12514 ft 371 kts
2026-05-05 13:25 37.09707 5.15005 13182 ft 377 kts
2026-05-05 13:25 37.12303 5.15304 13845 ft 382 kts
2026-05-05 13:25 37.14967 5.15612 14491 ft 386 kts
2026-05-05 13:25 37.17649 5.15922 15227 ft 388 kts
2026-05-05 13:26 37.20354 5.16236 15941 ft 392 kts
2026-05-05 13:26 37.23074 5.16551 16619 ft 395 kts
2026-05-05 13:26 37.25836 5.16870 17272 ft 400 kts
2026-05-05 13:26 37.28613 5.17194 17927 ft 404 kts
2026-05-05 13:27 37.31388 5.18077 18490 ft 419 kts 20°
2026-05-05 13:27 37.33951 5.19876 19090 ft 426 kts 30°
2026-05-05 13:27 37.36415 5.21927 19665 ft 429 kts 32°
2026-05-05 13:27 37.38879 5.24040 20214 ft 433 kts 30°
2026-05-05 13:28 37.41594 5.25544 20718 ft 428 kts
2026-05-05 13:28 37.44529 5.25680 21281 ft 416 kts 346°
2026-05-05 13:28 37.47334 5.24914 21864 ft 413 kts 338°
2026-05-05 13:28 37.50092 5.23855 22363 ft 415 kts 336°
2026-05-05 13:29 37.52854 5.22752 22867 ft 421 kts 338°
2026-05-05 13:29 37.55730 5.21884 23370 ft 428 kts 343°
2026-05-05 13:29 37.58704 5.21396 23831 ft 436 kts 350°
2026-05-05 13:29 37.61725 5.21257 24259 ft 442 kts 355°
2026-05-05 13:30 37.64820 5.21375 24693 ft 447 kts 358°
2026-05-05 13:30 37.67924 5.21652 25099 ft 451 kts 360°
2026-05-05 13:30 37.71065 5.22016 25521 ft 454 kts
2026-05-05 13:30 37.74219 5.22415 25926 ft 457 kts
2026-05-05 13:31 37.77391 5.22821 26322 ft 460 kts
2026-05-05 13:31 37.80586 5.23223 26710 ft 462 kts
2026-05-05 13:31 37.83789 5.23616 27086 ft 465 kts
2026-05-05 13:31 37.86986 5.24001 27455 ft 467 kts
2026-05-05 13:32 37.90221 5.24385 27824 ft 470 kts
2026-05-05 13:32 37.93490 5.24770 28176 ft 473 kts
2026-05-05 13:32 37.96784 5.25157 28537 ft 475 kts
2026-05-05 13:32 38.00079 5.25545 28883 ft 478 kts
2026-05-05 13:33 38.03406 5.25936 29224 ft 480 kts
2026-05-05 13:33 38.06739 5.26330 29551 ft 483 kts
2026-05-05 13:33 38.10084 5.26725 29874 ft 485 kts
2026-05-05 13:33 38.13410 5.27119 30165 ft 487 kts
2026-05-05 13:34 38.16795 5.27520 30445 ft 489 kts
2026-05-05 13:34 38.20188 5.27922 30718 ft 491 kts
2026-05-05 13:34 38.23598 5.28327 30988 ft 492 kts
2026-05-05 13:34 38.27008 5.28733 31323 ft 492 kts
2026-05-05 13:35 38.30408 5.29139 31724 ft 490 kts
2026-05-05 13:35 38.33786 5.29543 32127 ft 488 kts
2026-05-05 13:35 38.37124 5.29941 32485 ft 487 kts
2026-05-05 13:35 38.40490 5.30343 32816 ft 487 kts
2026-05-05 13:36 38.43861 5.30745 33173 ft 485 kts
2026-05-05 13:36 38.47213 5.31145 33553 ft 484 kts
2026-05-05 13:36 38.50562 5.31546 33932 ft 482 kts
2026-05-05 13:36 38.53905 5.31946 34236 ft 481 kts
2026-05-05 13:37 38.57221 5.32343 34542 ft 480 kts 360°
2026-05-05 13:37 38.60546 5.32742 34854 ft 478 kts 360°
2026-05-05 13:37 38.63812 5.33134 35142 ft 477 kts 359°
2026-05-05 13:37 38.67112 5.33530 35396 ft 477 kts 359°
2026-05-05 13:38 38.70412 5.33926 35653 ft 476 kts 359°
2026-05-05 13:38 38.73699 5.34322 35939 ft 475 kts 359°
2026-05-05 13:38 38.80319 5.35117 35968 ft 477 kts 359°
2026-05-05 13:39 38.86913 5.35915 35956 ft 475 kts 359°
2026-05-05 13:39 38.93423 5.36703 35957 ft 473 kts 359°
2026-05-05 13:40 38.99955 5.37487 35957 ft 470 kts 358°
2026-05-05 13:40 39.06468 5.37760 35959 ft 466 kts 353°
2026-05-05 13:41 39.12911 5.37779 35963 ft 467 kts 353°
2026-05-05 13:41 39.19420 5.37815 35964 ft 469 kts 353°
2026-05-05 13:42 39.25970 5.37898 35962 ft 472 kts 354°
2026-05-05 13:42 39.32545 5.38001 35958 ft 474 kts 354°
2026-05-05 13:43 39.39161 5.38108 35955 ft 476 kts 354°
2026-05-05 13:43 39.45757 5.38214 35952 ft 478 kts 354°
2026-05-05 13:44 39.52414 5.38320 35951 ft 480 kts 354°
2026-05-05 13:44 39.59098 5.38426 35952 ft 481 kts 354°
2026-05-05 13:45 39.65789 5.38533 35952 ft 481 kts 354°
2026-05-05 13:45 39.72490 5.38639 35949 ft 482 kts 354°
2026-05-05 13:46 39.79142 5.38746 35949 ft 482 kts 354°
2026-05-05 13:46 39.85850 5.38853 35940 ft 482 kts 353°
2026-05-05 13:47 39.92558 5.38960 35957 ft 482 kts 353°
2026-05-05 13:47 39.99217 5.39067 35952 ft 482 kts 353°
2026-05-05 13:48 40.05923 5.39174 35944 ft 482 kts 353°
2026-05-05 13:48 40.12629 5.39282 35956 ft 482 kts 353°
2026-05-05 13:49 40.19333 5.39390 35947 ft 482 kts 353°
2026-05-05 13:49 40.25994 5.39498 35958 ft 482 kts 353°
2026-05-05 13:50 40.32671 5.39605 35950 ft 482 kts 353°
2026-05-05 13:50 40.39392 5.39711 35944 ft 481 kts 353°
2026-05-05 13:51 40.46079 5.39662 35945 ft 480 kts 351°
2026-05-05 13:51 40.52719 5.39541 35947 ft 480 kts 351°
2026-05-05 13:52 40.59400 5.39436 35946 ft 480 kts 351°
2026-05-05 13:52 40.66075 5.39349 35944 ft 480 kts 351°
2026-05-05 13:53 40.72750 5.39266 35945 ft 480 kts 351°
2026-05-05 13:53 40.79449 5.39181 35943 ft 481 kts 351°
2026-05-05 13:54 40.84999 5.39111 35942 ft 481 kts 351°
2026-05-05 13:54 40.92786 5.39011 35938 ft 481 kts 351°
2026-05-05 13:55 40.98348 5.38940 35939 ft 481 kts 351°
2026-05-05 13:55 41.05037 5.38866 35941 ft 481 kts 352°
2026-05-05 13:56 41.12817 5.38823 35941 ft 481 kts 352°
2026-05-05 13:56 41.19513 5.38789 35941 ft 481 kts 352°
2026-05-05 13:57 41.25072 5.38757 35948 ft 481 kts 351°
2026-05-05 13:57 41.31767 5.38716 35937 ft 481 kts 351°
2026-05-05 13:58 41.39546 5.38668 35936 ft 481 kts 351°
2026-05-05 13:58 41.45147 5.38634 35935 ft 481 kts 351°
2026-05-05 13:59 41.55139 5.38572 35937 ft 481 kts 351°
2026-05-05 14:00 41.65139 5.38510 35939 ft 481 kts 351°
2026-05-05 14:00 41.71827 5.38396 35938 ft 481 kts 350°
2026-05-05 14:01 41.78517 5.38156 35941 ft 481 kts 349°
2026-05-05 14:01 41.85221 5.37908 35944 ft 482 kts 350°
2026-05-05 14:02 41.91939 5.37679 35940 ft 483 kts 350°
2026-05-05 14:02 41.98663 5.37458 35934 ft 484 kts 350°
2026-05-05 14:03 42.05365 5.37240 35936 ft 485 kts 350°
2026-05-05 14:03 42.12112 5.37020 35936 ft 485 kts 350°
2026-05-05 14:04 42.18856 5.36798 35938 ft 485 kts 350°
2026-05-05 14:04 42.25610 5.36576 35936 ft 485 kts 350°
2026-05-05 14:05 42.32317 5.36354 35937 ft 485 kts 350°
2026-05-05 14:05 42.39057 5.36131 35937 ft 485 kts 350°
2026-05-05 14:06 42.45807 5.35907 35937 ft 484 kts 350°
2026-05-05 14:06 42.52542 5.35683 35933 ft 484 kts 350°
2026-05-05 14:07 42.59229 5.35460 35934 ft 484 kts 350°
2026-05-05 14:07 42.65966 5.35234 35938 ft 484 kts 351°
2026-05-05 14:08 42.72693 5.35008 35938 ft 484 kts 351°
2026-05-05 14:08 42.79420 5.34782 35936 ft 484 kts 351°
2026-05-05 14:09 42.86162 5.34555 35936 ft 484 kts 351°
2026-05-05 14:09 42.92847 5.34330 35939 ft 484 kts 351°
2026-05-05 14:10 42.99583 5.34103 35937 ft 484 kts 351°
2026-05-05 14:10 43.06318 5.33874 35930 ft 484 kts 351°
2026-05-05 14:11 43.13048 5.33646 35933 ft 484 kts 351°
2026-05-05 14:11 43.19742 5.33418 35938 ft 484 kts 351°
2026-05-05 14:12 43.26477 5.33163 35941 ft 484 kts 351°
2026-05-05 14:12 43.33199 5.32820 35944 ft 484 kts 351°
2026-05-05 14:13 43.39813 5.31786 35932 ft 470 kts 336°
2026-05-05 14:13 43.45929 5.29041 35952 ft 465 kts 333°
2026-05-05 14:14 43.52051 5.26135 35939 ft 466 kts 333°
2026-05-05 14:14 43.58198 5.23269 35919 ft 466 kts 334°
2026-05-05 14:15 43.64362 5.20437 35915 ft 467 kts 334°
2026-05-05 14:15 43.70494 5.17628 35911 ft 468 kts 334°
2026-05-05 14:16 43.76682 5.14787 35919 ft 468 kts 334°
2026-05-05 14:16 43.82865 5.11939 35916 ft 469 kts 334°
2026-05-05 14:17 43.89057 5.09080 35909 ft 469 kts 334°
2026-05-05 14:17 43.95234 5.06219 35352 ft 477 kts 333°
2026-05-05 14:18 43.98385 5.04757 34769 ft 476 kts 333°
2026-05-05 14:18 44.01528 5.03301 34125 ft 476 kts 333°
2026-05-05 14:18 44.04677 5.01838 33338 ft 479 kts 332°
2026-05-05 14:18 44.07827 5.00376 32825 ft 474 kts 332°
2026-05-05 14:19 44.10937 4.98933 32334 ft 470 kts 332°
2026-05-05 14:19 44.14021 4.97501 31857 ft 465 kts 332°
2026-05-05 14:19 44.17074 4.96079 31388 ft 461 kts 332°
2026-05-05 14:19 44.20063 4.94684 30941 ft 457 kts 332°
2026-05-05 14:20 44.23065 4.93280 30493 ft 453 kts 331°
2026-05-05 14:20 44.26039 4.91887 30037 ft 450 kts 331°
2026-05-05 14:20 44.28998 4.90498 29497 ft 447 kts 331°
2026-05-05 14:20 44.31934 4.89120 29006 ft 442 kts 332°
2026-05-05 14:21 44.34829 4.87761 28543 ft 437 kts 332°
2026-05-05 14:21 44.37691 4.86415 28084 ft 432 kts 332°
2026-05-05 14:21 44.40527 4.85080 27617 ft 428 kts 332°
2026-05-05 14:21 44.43299 4.83773 27184 ft 424 kts 332°
2026-05-05 14:22 44.46119 4.82440 26710 ft 420 kts 333°
2026-05-05 14:22 44.48836 4.81156 26266 ft 417 kts 333°
2026-05-05 14:22 44.51576 4.79861 25820 ft 414 kts 333°
2026-05-05 14:22 44.54307 4.78586 25366 ft 413 kts 336°
2026-05-05 14:23 44.57176 4.78019 24986 ft 423 kts 356°
2026-05-05 14:23 44.60089 4.78277 24626 ft 420 kts 359°
2026-05-05 14:23 44.63001 4.78615 24204 ft 418 kts
2026-05-05 14:23 44.65854 4.78960 23803 ft 415 kts
2026-05-05 14:24 44.68732 4.79298 23324 ft 414 kts
2026-05-05 14:24 44.71591 4.79617 22832 ft 411 kts
2026-05-05 14:24 44.74406 4.79920 22369 ft 408 kts
2026-05-05 14:24 44.77241 4.80216 21931 ft 404 kts
2026-05-05 14:25 44.80039 4.80503 21492 ft 401 kts
2026-05-05 14:25 44.82808 4.80786 21065 ft 398 kts
2026-05-05 14:25 44.85557 4.81067 20629 ft 394 kts
2026-05-05 14:25 44.88280 4.81345 20213 ft 391 kts
2026-05-05 14:26 44.90984 4.81622 19797 ft 388 kts
2026-05-05 14:26 44.93639 4.81894 19397 ft 386 kts
2026-05-05 14:26 44.96307 4.82168 18974 ft 384 kts
2026-05-05 14:26 44.98961 4.82441 18558 ft 381 kts
2026-05-05 14:27 45.01590 4.82713 18137 ft 379 kts
2026-05-05 14:27 45.04214 4.82982 17671 ft 376 kts
2026-05-05 14:27 45.06820 4.83251 17232 ft 374 kts
2026-05-05 14:27 45.09406 4.83518 16808 ft 372 kts
2026-05-05 14:28 45.11948 4.83781 16383 ft 369 kts
2026-05-05 14:28 45.14496 4.84045 15979 ft 367 kts
2026-05-05 14:28 45.17040 4.84315 15571 ft 364 kts
2026-05-05 14:28 45.19523 4.85009 15161 ft 363 kts 15°
2026-05-05 14:29 45.21916 4.86098 14768 ft 361 kts 18°
2026-05-05 14:29 45.24292 4.87222 14366 ft 359 kts 17°
2026-05-05 14:29 45.26667 4.88292 13962 ft 357 kts 16°
2026-05-05 14:29 45.29041 4.89312 13478 ft 356 kts 14°
2026-05-05 14:30 45.31470 4.90207 12813 ft 362 kts 12°
2026-05-05 14:30 45.33887 4.91027 12337 ft 351 kts 12°
2026-05-05 14:30 45.36191 4.91800 11943 ft 340 kts 12°
2026-05-05 14:30 45.38463 4.92570 11548 ft 330 kts 12°
2026-05-05 14:31 45.40658 4.93323 11187 ft 321 kts 12°
2026-05-05 14:31 45.42794 4.94063 10838 ft 312 kts 13°
2026-05-05 14:31 45.44882 4.94790 10497 ft 304 kts 12°
2026-05-05 14:31 45.46897 4.95494 10311 ft 293 kts 13°
2026-05-05 14:32 45.48862 4.96181 10157 ft 290 kts 13°
2026-05-05 14:32 45.50833 4.96871 10036 ft 294 kts 13°
2026-05-05 14:32 45.52813 4.97564 9672 ft 300 kts 12°
2026-05-05 14:32 45.54845 4.98234 9245 ft 299 kts
2026-05-05 14:33 45.56888 4.98195 8836 ft 291 kts 352°
2026-05-05 14:33 45.58870 4.97888 8728 ft 281 kts 351°
2026-05-05 14:33 45.60813 4.97576 8611 ft 280 kts 351°
2026-05-05 14:33 45.62745 4.97274 8273 ft 282 kts 351°
2026-05-05 14:34 45.64706 4.96975 8040 ft 284 kts 352°
2026-05-05 14:34 45.66633 4.96691 7892 ft 274 kts 352°
2026-05-05 14:34 45.68529 4.96415 7664 ft 272 kts 352°
2026-05-05 14:34 45.70381 4.96147 7280 ft 274 kts 352°
2026-05-05 14:35 45.72273 4.95874 6794 ft 275 kts 352°
2026-05-05 14:35 45.74200 4.95598 6307 ft 276 kts 352°
2026-05-05 14:35 45.76103 4.95326 5803 ft 276 kts 352°
2026-05-05 14:35 45.78014 4.95017 5296 ft 275 kts 351°
2026-05-05 14:36 45.79898 4.94690 4846 ft 271 kts 350°
2026-05-05 14:36 45.81756 4.94367 4434 ft 266 kts 350°
2026-05-05 14:36 45.83565 4.94058 4071 ft 256 kts 352°
2026-05-05 14:36 45.85272 4.93852 3784 ft 243 kts 355°
2026-05-05 14:37 45.86917 4.94210 3534 ft 239 kts 18°
2026-05-05 14:37 45.88455 4.95027 3283 ft 233 kts 19°
2026-05-05 14:37 45.89949 4.95826 3090 ft 228 kts 24°
2026-05-05 14:37 45.91078 4.97314 2994 ft 218 kts 67°
2026-05-05 14:38 45.91479 4.99344 3008 ft 211 kts 79°
2026-05-05 14:38 45.91846 5.01450 3020 ft 222 kts 78°
2026-05-05 14:38 45.92132 5.03620 2985 ft 218 kts 95°
2026-05-05 14:38 45.91584 5.05509 2981 ft 201 kts 140°
2026-05-05 14:39 45.90427 5.06361 3011 ft 183 kts 165°
2026-05-05 14:39 45.89213 5.06874 2996 ft 180 kts 170°
2026-05-05 14:39 45.88019 5.07243 2993 ft 174 kts 172°
2026-05-05 14:39 45.86812 5.07524 3005 ft 175 kts 175°
2026-05-05 14:40 45.85600 5.07706 2995 ft 175 kts 176°
2026-05-05 14:40 45.84372 5.07860 2934 ft 183 kts 178°
2026-05-05 14:40 45.83110 5.08015 2719 ft 180 kts 178°
2026-05-05 14:40 45.81935 5.08160 2477 ft 163 kts 178°
2026-05-05 14:41 45.80871 5.08290 2276 ft 142 kts 178°
2026-05-05 14:41 45.79939 5.08403 2127 ft 133 kts 178°
2026-05-05 14:41 45.78989 5.08515 1950 ft 140 kts 179°
2026-05-05 14:41 45.77998 5.08637 1746 ft 145 kts 178°
2026-05-05 14:42 45.77002 5.08748 1503 ft 140 kts 177°
2026-05-05 14:42 45.76039 5.08860 1301 ft 140 kts 175°
2026-05-05 14:42 45.75074 5.09004 1167 ft 139 kts 177°
2026-05-05 14:42 45.74092 5.09120 954 ft 142 kts 177°
2026-05-05 14:43 45.73142 5.09231 810 ft 129 kts 176°
2026-05-05 14:43 45.72338 5.09329 813 ft 100 kts 175°
2026-05-05 14:43 45.71848 5.09370 820 ft 25 kts 196°
2026-05-05 14:43 45.71688 5.09286 820 ft 13 kts 208°
2026-05-05 14:44 45.71637 5.09199 815 ft 8 kts 266°
2026-05-05 14:44 45.71633 5.09100 813 ft 10 kts 264°
2026-05-05 14:44 45.71626 5.08997 813 ft 10 kts 264°
2026-05-05 14:44 45.71618 5.08898 813 ft 10 kts 264°
2026-05-05 14:45 45.71611 5.08794 811 ft 12 kts 264°
2026-05-05 14:45 45.71607 5.08739 808 ft 1 kts 264°
2026-05-05 14:45 45.71605 5.08713 807 ft 4 kts 264°
2026-05-05 14:45 45.71602 5.08660 806 ft 7 kts 264°
2026-05-05 14:46 45.71596 5.08574 803 ft 10 kts 264°
2026-05-05 14:46 45.71640 5.08501 802 ft 11 kts 349°
2026-05-05 14:46 45.71684 5.08432 800 ft 11 kts 267°
2026-05-05 14:46 45.71677 5.08317 799 ft 12 kts 264°
2026-05-05 14:47 45.71677 5.08226 800 ft 8 kts 284°
2026-05-05 14:47 45.71695 5.08143 799 ft 9 kts 276°
2026-05-05 14:47 45.71682 5.08083 797 ft 6 kts 240°
2026-05-05 14:47 45.71680 5.08027 796 ft 7 kts 295°
2026-05-05 14:48 45.71709 5.07973 796 ft 4 kts 311°
2026-05-05 14:48 45.71719 5.07958 796 ft 0 kts 311°